DW7901 Weather Reports


time (UTC)temp
C
wind
direction
speed
KPH
gust
KPH
rain 1hr
cm
rain 24hr
cm
rain mn
cm
humidity
%
barometer
mb
20260509202004 6 0 0.0 0.0 0.00 0.00 0.00 89 1022.9
20260509201003 7 0 0.0 0.0 0.00 0.00 0.00 88 1023.3
20260509200004 7 0 0.0 0.0 0.00 0.00 0.00 88 1023.1
20260509195004 7 181 0.0 1.6 0.00 0.00 0.00 87 1023.4
20260509194004 7 0 0.0 0.0 0.00 0.00 0.00 87 1023.3
20260509193004 7 181 0.0 3.2 0.00 0.00 0.00 85 1023.1
20260509192003 8 181 0.0 3.2 0.00 0.00 0.00 84 1023.3
20260509191003 8 181 1.6 4.8 0.00 0.00 0.00 83 1023.4
20260509185004 8 270 0.0 1.6 0.00 0.00 0.00 78 1023.2
20260509184004 10 270 0.0 3.2 0.00 0.00 0.00 77 1023.3
20260509183004 10 270 0.0 1.6 0.00 0.00 0.00 73 1023.1
20260509182004 10 0 0.0 0.0 0.00 0.00 0.00 72 1023.1
20260509181004 11 0 0.0 0.0 0.00 0.00 0.00 70 1023.1
20260509175004 11 225 0.0 1.6 0.00 0.00 0.00 69 1023.0
20260509174004 11 0 0.0 0.0 0.00 0.00 0.00 69 1022.9
20260509173004 11 1 0.0 1.6 0.00 0.00 0.00 69 1022.9
20260509172004 11 0 0.0 0.0 0.00 0.00 0.00 69 1022.8
20260509170004 11 329 1.6 6.4 0.00 0.00 0.00 69 1022.5
20260509164004 11 9 3.2 6.4 0.00 0.00 0.00 69 1022.7
20260509163004 11 29 3.2 11.3 0.00 0.00 0.00 69 1022.7
20260509162004 11 15 3.2 11.3 0.00 0.00 0.00 69 1022.6
20260509160004 12 29 12.9 22.5 0.00 0.00 0.00 67 1022.7
20260509155004 12 329 9.7 19.3 0.00 0.00 0.00 67 1022.9
20260509153004 12 27 14.5 22.5 0.00 0.00 0.00 67 1022.7
20260509152004 12 11 16.1 20.9 0.00 0.00 0.00 65 1022.6
20260509151004 12 2 9.7 24.1 0.00 0.00 0.00 64 1022.8
20260509150004 12 352 14.5 22.5 0.00 0.00 0.00 64 1022.6
20260509145005 12 353 12.9 20.9 0.00 0.00 0.00 64 1022.7
20260509144004 12 32 8.0 27.4 0.00 0.00 0.00 64 1022.4
20260509143003 12 37 9.7 24.1 0.00 0.00 0.00 63 1022.6
20260509142004 13 44 14.5 25.7 0.00 0.00 0.00 60 1022.6
20260509141004 13 352 12.9 24.1 0.00 0.00 0.00 57 1022.4
20260509140005 14 21 12.9 20.9 0.00 0.00 0.00 54 1022.4
20260509133004 15 1 6.4 14.5 0.00 0.00 0.00 48 1022.2
20260509131003 16 342 3.2 11.3 0.00 0.00 0.00 50 1022.2
20260509130004 16 4 8.0 11.3 0.00 0.00 0.00 50 1022.2
20260509125004 16 7 3.2 9.7 0.00 0.00 0.00 50 1022.4
20260509124004 16 29 6.4 11.3 0.00 0.00 0.00 49 1022.4
20260509123004 16 17 6.4 11.3 0.00 0.00 0.00 49 1022.6
20260509122004 16 356 0.0 12.9 0.00 0.00 0.00 51 1022.6
20260509121004 15 45 3.2 12.9 0.00 0.00 0.00 55 1022.6
20260509120004 14 6 8.0 12.9 0.00 0.00 0.00 58 1022.8
20260509114004 13 9 6.4 12.9 0.00 0.00 0.00 60 1022.9
20260509113004 13 341 6.4 14.5 0.00 0.00 0.00 57 1022.7
20260509112003 14 326 4.8 14.5 0.00 0.00 0.00 54 1022.6
20260509111003 14 337 3.2 8.0 0.00 0.00 0.00 51 1022.5
20260509110004 15 324 4.8 9.7 0.00 0.00 0.00 48 1022.5
20260509105004 15 315 6.4 16.1 0.00 0.00 0.00 47 1022.4
20260509104004 15 337 4.8 12.9 0.00 0.00 0.00 45 1022.5
20260509103004 16 311 6.4 12.9 0.00 0.00 0.00 42 1022.6
20260509102004 16 291 1.6 16.1 0.00 0.00 0.00 44 1022.5
20260509101004 17 273 3.2 11.3 0.00 0.00 0.00 41 1022.6
20260509100005 16 213 6.4 11.3 0.00 0.00 0.00 46 1022.4
20260509095003 16 242 3.2 8.0 0.00 0.00 0.00 47 1022.5
20260509093004 16 200 6.4 9.7 0.00 0.00 0.00 47 1022.5
20260509092003 16 341 3.2 11.3 0.00 0.00 0.00 47 1022.7
20260509085004 15 5 8.0 12.9 0.00 0.00 0.00 52 1022.5
20260509084004 15 342 11.3 16.1 0.00 0.00 0.00 52 1022.6
20260509083004 15 1 4.8 6.4 0.00 0.00 0.00 50 1022.4